Regional Weather Roundup
Issued by NWS

Current Version | Previous Version | Text Only | Print | Product List | Glossary On
Versions: 1 2 3 4 5 6 7 8 9 10 11 12 13 14 15 16 17 18 19 20 21 22 23 24 25 26 27
000
ASUS44 KBMX 311610
RWRAL

ALABAMA REGIONAL WEATHER ROUNDUP
NATIONAL WEATHER SERVICE BIRMINGHAM AL
1100 AM CDT FRI OCT 31 2014

NOTE: "FAIR" INDICATES FEW OR NO CLOUDS BELOW 12,000 FEET
WITH NO SIGNIFICANT WEATHER AND/OR OBSTRUCTIONS TO VISIBILITY.

THE REMARK "TC" DENOTES TEMPERATURE IN DEGREES CELSIUS.

ALZ001>011-014-016>018-020-311700-
NORTH ALABAMA

CITY           SKY/WX    TMP DP  RH WIND       PRES   REMARKS
MUSCLE SHOALS  CLOUDY    57  44  62 CALM      30.04S
HUNTSVILLE     CLOUDY    57  44  62 N7        30.02R
DECATUR        CLOUDY    56  44  64 N9        30.03R
HALEYVILLE     PTSUNNY   55  47  74 N6        30.05R
GADSDEN        CLOUDY    52  43  71 CALM      30.00S
$$

ALZ012-013-022-023-030>036-040>044-311700-
WEST CENTRAL ALABAMA

CITY           SKY/WX    TMP DP  RH WIND       PRES   REMARKS
TUSCALOOSA     SUNNY     60  44  55 CALM      30.01S
$$

ALZ015-024>027-033>036-040>044-311700-
CENTRAL ALABAMA

CITY           SKY/WX    TMP DP  RH WIND       PRES   REMARKS
BIRMINGHAM     PTSUNNY   63  41  44 N9        30.02R
MONTGOMERY     SUNNY     65  40  39 CALM      29.98F
SHELBY CO ARPT SUNNY     62  42  47 CALM      29.99F
MAXWELL AFB    SUNNY     64  45  48 VRB2      29.98F
GREENVILLE     FAIR      67  41  38 NE5       29.98F
$$

ALZ019-021-028-029-037-038-045>048-311700-
EAST CENTRAL ALABAMA

CITY           SKY/WX    TMP DP  RH WIND       PRES   REMARKS
ANNISTON       CLOUDY    55  43  63 CALM      30.00S
ALEXANDER CITY SUNNY     62  37  38 N5        29.98S
AUBURN         MOSUNNY   61  37  41 NW8       30.00S
$$

ALZ051>064-311700-
SOUTHWEST ALABAMA

CITY           SKY/WX    TMP DP  RH WIND       PRES   REMARKS
MOBILE         MOSUNNY   66  44  45 W8        30.03F
BROOKLEY FIELD SUNNY     67  47  48 E5        30.04S
EVERGREEN      SUNNY     68  42  38 VRB3      30.00F
$$

ALZ049-050-065>069-311700-
SOUTHEAST ALABAMA

CITY           SKY/WX    TMP DP  RH WIND       PRES   REMARKS
DOTHAN         SUNNY     65  41  41 N7        30.01F
OZARK          SUNNY     64  42  45 N6        29.98F
TROY           SUNNY     66  41  40 N7        29.99F
EUFAULA        LGT RAIN  64  43  46 VRB5      29.97S
$$



USA.gov is the U.S. government's official web portal to all federal, state and local government web resources and services.